Location: Rowland
(34.5359°N, 79.2929°W)
Time: 18:01:56
(UTC+00:00)

Transit 2A Rocket - Pass Details

Date: 07 October 2022
Orbit: 589 x 911 km, 66.7° (Epoch: 02 December)

Event Time Altitude Azimuth Distance (km) Brightness Sun altitude
Rises 10:56:14 0° 255° (WSW) 2,827 - -5.0°
Exits shadow 10:58:02 - 268° (W) 2,305 6.8 -4.6°
Reaches altitude 10° 10:59:56 10° 288° (WNW) 1,915 6.5 -4.2°
Maximum altitude 11:01:30 12° 310° (NW) 1,803 6.5 -3.9°
Drops below altitude 10° 11:03:05 10° 332° (NNW) 1,922 6.8 -3.6°
Sets 11:06:50 0° 5° (N) 2,853 8.0 -2.8°
